Tacoma, WA
on Monday, February 25, 2013

Monday
Previous Day Next Day
Daily Summary
 ActualAverage (KSEA)Record (KSEA)
Temperature
Mean Temperature °F 44°F  
Max Temperature 49°F 51°F 64°F (1992)
Min Temperature 32°F 37°F 20°F (2011)
Degree Days
Heating Degree Days 24 21  
Month to date heating degree days 543  
Since 1 July heating degree days 3192  
Cooling Degree Days 0 0  
Month to date cooling degree days 0  
Year to date cooling degree days 0  
Moisture
Dew Point 38°F   
Average Humidity 87    
Maximum Humidity 100    
Minimum Humidity 52    
Precipitation
Precipitation 0.12 in 0.13 in 0.98 in (1948)
Month to date precipitation 3.13  
Year to date precipitation 8.70  
Snow
Snow 0.00 in in T in (2009)
Month to date snowfall  
Since 1 July snowfall  
Snow Depth in   
Wind
Wind Speed 13 mph   
Max Wind Speed 23 mph   
Max Gust Speed 36 mph   
Visibility 10 miles   
Events Rain   

Key: T is trace of precipitation, MM is missing value
Source: NWS Daily Summary
Time(PST)TemperatureDew PointHumidity Pressure Visibility Wind DirectionWind SpeedGust SpeedPrecipitationEvents Conditions
12:33 AM 42.8°F 37.4°F 81% 29.94 in 10.0 miles South 13.8 mph - N/A Rain Light Rain
12:38 AM 42.8°F 35.6°F 76% 29.93 in 10.0 miles SSE 11.5 mph - N/A Rain Light Rain
12:58 AM 41.9°F 37.4°F 84% 29.95 in 10.0 miles SSE 12.7 mph - 0.02 in Rain Light Rain
1:33 AM 41.0°F 39.2°F 93% 29.92 in 10.0 miles South 8.1 mph - N/A Rain Light Rain
1:38 AM 41.0°F 39.2°F 93% 29.92 in 10.0 miles South 8.1 mph - N/A Rain Light Rain
1:43 AM 41.0°F 39.2°F 93% 29.92 in 10.0 miles South 8.1 mph - N/A Rain Light Rain
1:48 AM 41.0°F 39.2°F 93% 29.92 in 10.0 miles South 6.9 mph - N/A Rain Light Rain
1:53 AM 41.0°F 39.2°F 93% 29.92 in 10.0 miles South 6.9 mph - N/A Rain Light Rain
1:58 AM 40.5°F 39.6°F 97% 29.94 in 10.0 miles South 6.9 mph - 0.03 in Rain Light Rain
2:33 AM 41.0°F 41.0°F 100% 29.93 in 10.0 miles SSW 12.7 mph - N/A   Overcast
2:45 AM 42.8°F 39.2°F 87% 29.93 in 10.0 miles SSW 18.4 mph 27.6 mph N/A Rain Light Rain
2:58 AM 41.7°F 39.7°F 93% 29.96 in 10.0 miles SSW 16.1 mph 26.5 mph 0.02 in Rain Light Rain
3:03 AM 41.0°F 39.2°F 93% 29.94 in 10.0 miles SSW 16.1 mph 24.2 mph N/A   Overcast
3:13 AM 41.0°F 39.2°F 93% 29.94 in 10.0 miles SSW 15.0 mph - N/A Rain Light Rain
3:25 AM 41.0°F 39.2°F 93% 29.95 in 10.0 miles SSW 12.7 mph - N/A Rain Light Rain
3:27 AM 41.0°F 39.2°F 93% 29.95 in 10.0 miles South 15.0 mph - N/A   Mostly Cloudy
3:37 AM 41.0°F 39.2°F 93% 29.95 in 10.0 miles South 13.8 mph - N/A   Mostly Cloudy
3:58 AM 40.5°F 39.7°F 97% 29.98 in 10.0 miles South 13.8 mph - 0.00 in   Mostly Cloudy
4:43 AM 41.0°F 39.2°F 93% 29.98 in 10.0 miles SSW 12.7 mph - N/A   Mostly Cloudy
4:47 AM 41.0°F 39.2°F 93% 29.98 in 10.0 miles South 12.7 mph - N/A Rain Light Rain
4:58 AM 40.8°F 39.7°F 96% 30.01 in 10.0 miles SSW 13.8 mph - 0.00 in Rain Light Rain
5:03 AM 41.0°F 39.2°F 93% 29.99 in 10.0 miles SSW 12.7 mph - N/A   Overcast
5:27 AM 41.0°F 39.2°F 93% 30.00 in 10.0 miles SSW 15.0 mph - N/A Rain Light Rain
5:42 AM 41.0°F 39.2°F 93% 30.00 in 10.0 miles South 13.8 mph 21.9 mph N/A Rain Light Rain
5:47 AM 41.0°F 39.2°F 93% 30.00 in 10.0 miles South 12.7 mph 21.9 mph N/A Rain Light Rain
5:58 AM 40.5°F 39.4°F 96% 30.03 in 10.0 miles SSW 15.0 mph - 0.01 in Rain Light Rain
6:18 AM 41.0°F 39.2°F 93% 30.01 in 10.0 miles South 17.3 mph - N/A Rain Light Rain
6:21 AM 41.0°F 39.2°F 93% 30.01 in 10.0 miles SSW 16.1 mph - N/A   Overcast
6:44 AM 39.2°F 39.2°F 100% 29.99 in 10.0 miles SSW 19.6 mph 25.3 mph N/A Rain Light Rain
6:49 AM 39.2°F 39.2°F 100% 30.00 in 10.0 miles SSW 17.3 mph 25.3 mph N/A   Overcast
6:52 AM 39.2°F 39.2°F 100% 30.00 in 10.0 miles SSW 16.1 mph 25.3 mph N/A Rain Light Rain
6:57 AM 39.2°F 37.4°F 93% 30.00 in 10.0 miles SSW 18.4 mph 25.3 mph N/A Rain Light Rain
6:58 AM 39.9°F 38.3°F 94% 30.02 in 10.0 miles SSW 18.4 mph 25.3 mph 0.00 in Rain Light Rain
7:33 AM 39.2°F 37.4°F 93% 30.03 in 10.0 miles SSW 13.8 mph 25.3 mph N/A   Overcast
7:38 AM 39.2°F 37.4°F 93% 30.03 in 10.0 miles SSW 13.8 mph 23.0 mph N/A   Mostly Cloudy
7:53 AM 39.2°F 37.4°F 93% 30.04 in 10.0 miles SSW 12.7 mph 23.0 mph N/A   Mostly Cloudy
7:58 AM 39.4°F 37.9°F 95% 30.06 in 10.0 miles SSW 17.3 mph 23.0 mph 0.01 in   Mostly Cloudy
8:03 AM 39.2°F 37.4°F 93% 30.04 in 10.0 miles SSW 15.0 mph 25.3 mph N/A   Mostly Cloudy
8:09 AM 39.2°F 37.4°F 93% 30.06 in 10.0 miles SSW 16.1 mph 25.3 mph N/A   Overcast
8:58 AM 40.5°F 38.5°F 93% 30.07 in 10.0 miles SSW 17.3 mph 26.5 mph N/A   Overcast
9:00 AM 41.0°F 39.2°F 93% 30.06 in 10.0 miles SW 15.0 mph 26.5 mph N/A Rain Light Rain
9:05 AM 41.0°F 39.2°F 93% 30.05 in 8.0 miles SSW 16.1 mph - N/A Rain Light Rain
9:21 AM 41.0°F 39.2°F 93% 30.06 in 10.0 miles SW 17.3 mph 26.5 mph N/A   Mostly Cloudy
9:31 AM 41.0°F 39.2°F 93% 30.06 in 10.0 miles SSW 18.4 mph 27.6 mph N/A   Mostly Cloudy
9:58 AM 42.4°F 38.8°F 87% 30.09 in 10.0 miles SW 20.7 mph 27.6 mph 0.00 in   Clear
10:58 AM 45.1°F 38.5°F 77% 30.12 in 10.0 miles SW 18.4 mph 29.9 mph N/A   Mostly Cloudy
11:51 AM 46.4°F 37.4°F 71% 30.12 in 10.0 miles SW 18.4 mph 35.7 mph N/A Rain Light Rain
11:56 AM 46.4°F 37.4°F 71% 30.12 in 10.0 miles SW 20.7 mph 31.1 mph N/A Rain Light Rain
12:01 PM 46.4°F 37.4°F 71% 30.12 in 10.0 miles SW 19.6 mph 28.8 mph N/A Rain Light Rain
12:10 PM 44.6°F 39.2°F 81% 30.13 in 5.0 miles SW 23.0 mph 29.9 mph N/A Rain Light Rain
12:42 PM 42.8°F 39.2°F 87% 30.14 in 10.0 miles SW 13.8 mph 23.0 mph N/A   Mostly Cloudy
12:47 PM 44.6°F 39.2°F 81% 30.14 in 10.0 miles SW 11.5 mph - N/A   Scattered Clouds
12:58 PM 46.6°F 37.6°F 71% 30.15 in 10.0 miles WSW 18.4 mph 27.6 mph 0.03 in   Partly Cloudy
1:58 PM 48.7°F 34.0°F 57% 30.15 in 10.0 miles WSW 20.7 mph - N/A   Partly Cloudy
2:58 PM 49.1°F 32.0°F 52% 30.17 in 10.0 miles WSW 20.7 mph 26.5 mph N/A   Partly Cloudy
3:58 PM 46.6°F 33.6°F 61% 30.18 in 10.0 miles WSW 17.3 mph 34.5 mph N/A   Clear
4:07 PM 44.6°F 33.8°F 66% 30.16 in 10.0 miles WSW 20.7 mph 34.5 mph N/A Rain Light Rain
4:15 PM 44.6°F 35.6°F 71% 30.18 in 10.0 miles WSW 18.4 mph 28.8 mph N/A   Clear
4:58 PM 44.6°F 35.1°F 69% 30.20 in 10.0 miles SW 16.1 mph 21.9 mph 0.00 in   Scattered Clouds
5:58 PM 42.8°F 33.3°F 69% 30.23 in 10.0 miles SSW 6.9 mph - N/A   Clear
6:58 PM 41.0°F 34.0°F 76% 30.25 in 10.0 miles SSW 9.2 mph 18.4 mph N/A   Scattered Clouds
7:58 PM 38.8°F 34.0°F 83% 30.27 in 10.0 miles SSE 4.6 mph - N/A   Clear
8:13 PM 37.4°F 33.8°F 87% 30.26 in 10.0 miles ESE 6.9 mph - N/A   Mostly Cloudy
8:33 PM 37.4°F 33.8°F 87% 30.27 in 10.0 miles SSE 10.4 mph - N/A   Scattered Clouds
8:58 PM 37.0°F 34.2°F 89% 30.30 in 10.0 miles South 10.4 mph - N/A   Partly Cloudy
9:58 PM 35.6°F 33.8°F 93% 30.31 in 10.0 miles South 5.8 mph - N/A   Clear
10:58 PM 34.0°F 32.7°F 95% 30.32 in 10.0 miles SSE 5.8 mph - N/A   Clear
11:58 PM 32.9°F 32.4°F 98% 30.33 in 10.0 miles SSE 2.3 mph - N/A   Clear
Moon Phase
Feb. 25 Feb. 25 Mar. 04 Mar. 11 Mar. 19
Sunrise:06:56 AM (PST) Moon Rise:06:13 PM (PST)
Sunset:05:49 PM (PST) Moon Set:06:27 AM (PST)

Copyright © 2014 The Weather Underground, Inc.